[[{"header":{"parameterUnit":"m.s-1","parameterCategory":1,"la1":30.2991,"la2":30.254,"lo1":-89.0895,"lo2":-89.0444,"dy":0.0017,"dx":0.0017,"nx":28,"ny":28,"refTime":"2023-07-30T09:00:00:Z","depth":0,"parameterNumber":2,"parameterNumberName":"U-component_of_WINDS"},"data":[0,0,0,0,0,0,0,0,0,0,0,0,0,0,0,0,0,0,0,0,0,0,0,0,0,0,0,0,0,0,0,0,0,0,0,0,0,0,0,0,0,0,0,0,0,0,0,0,0,0,0,0,0,0,0,0,0,0,-1.5911,-1.5911,0,-1.5868,-1.5868,-1.5867,-1.5769,-1.5767,-1.5765,-1.5763,-1.5723,-1.5724,-1.5724,0,0,0,0,0,0,0,0,0,0,0,0,0,-1.5911,-1.5911,-1.5911,-1.5911,-1.591,-1.5868,-1.5868,-1.5867,-1.577,-1.5767,-1.5765,-1.5762,-1.5723,-1.5724,-1.5725,0,0,0,0,0,0,0,0,0,0,0,0,0,-1.5894,-1.5911,-1.5911,-1.5856,-1.5851,-1.5869,-1.5868,-1.5867,-1.577,-1.5767,-1.5764,-1.5761,-1.5722,-1.5723,-1.5725,-1.5793,0,0,-1.5728,-1.5729,0,0,0,0,0,0,0,0,-1.5895,-1.5894,-1.5865,-1.586,-1.5854,-1.5821,-1.5853,-1.5843,-1.5771,-1.5801,-1.5763,-1.576,-1.5758,-1.5756,-1.5755,-1.5791,-1.579,-1.5728,-1.5729,-1.573,-1.573,0,0,0,0,0,0,0,-1.5896,-1.5895,-1.5894,-1.5865,-1.5858,-1.5835,-1.5829,-1.585,-1.5797,-1.5798,-1.5791,-1.5787,-1.5755,-1.5754,-1.5753,-1.5789,-1.5728,-1.573,-1.573,-1.5731,-1.5879,-1.5882,0,0,0,0,0,0,-1.5905,-1.5897,-1.5896,-1.5893,-1.5867,-1.5837,-1.5831,-1.5835,-1.5797,-1.5788,-1.579,-1.5783,-1.5754,-1.5752,-1.5752,-1.5829,-1.573,-1.5731,-1.5732,-1.5876,-1.588,-1.5883,0,0,0,0,0,0,-1.5905,-1.5906,-1.5897,-1.5893,-1.589,-1.584,-1.5846,-1.5836,-1.5835,-1.579,-1.5781,-1.5799,-1.5751,-1.575,-1.5783,-1.5827,-1.5731,-1.5733,-1.5872,-1.5877,-1.5882,-1.5986,0,0,0,0,0,0,-1.5906,-1.5907,-1.5932,-1.5894,-1.5891,-1.593,-1.5848,-1.5837,-1.5837,-1.5827,-1.5796,-1.5788,-1.5749,-1.5782,-1.5785,-1.5826,-1.5734,-1.5868,-1.5874,-1.588,-1.5978,-1.5993,-1.6007,0,0,0,0,0,-1.5906,-1.5963,-1.5933,-1.5934,-1.5921,-1.5932,-1.593,-1.5882,-1.5841,-1.5866,-1.5837,-1.5789,-1.5821,-1.5786,-1.5788,-1.5831,-1.5865,-1.5873,-1.588,-1.5972,-1.599,-1.6006,0,0,0,0,0,0,-1.6008,-1.5958,-1.5924,-1.597,-1.5956,-1.5916,-1.5946,-1.5904,-1.5902,-1.5893,-1.5835,-1.5829,-1.587,-1.5854,-1.5816,-1.5895,-1.5835,-1.5843,-1.5905,-1.5922,-1.5936,-1.594,-1.5735,0,0,0,0,0,-1.6036,-1.6049,-1.6004,-1.6049,-1.6044,-1.5996,-1.6,-1.5964,-1.5947,-1.5941,-1.5915,-1.5901,-1.5908,-1.5914,-1.5918,-1.5975,-1.5967,-1.6005,-1.602,-1.6032,-1.6039,-1.6068,-1.6085,-1.5907,-1.5907,-1.5907,0,0,-1.6094,-1.6068,-1.608,-1.6069,-1.6054,-1.6069,-1.5992,-1.6011,-1.6022,-1.5944,-1.5974,-1.5954,-1.5936,-1.5981,-1.6,-1.5969,-1.6087,-1.6041,-1.6051,-1.6052,-1.6078,-1.6095,-1.611,-1.5912,-1.5911,-1.591,0,0,-1.6208,-1.6189,-1.6224,-1.621,-1.6188,-1.6156,-1.6165,-1.613,-1.6114,-1.6142,-1.6084,-1.6096,-1.611,-1.6098,-1.6095,-1.6203,-1.6159,-1.6206,-1.6281,-1.6309,-1.6324,-1.6336,-1.6375,-1.639,-1.6214,-1.6214,-1.6214,0,-1.6283,-1.6302,-1.6248,-1.6271,-1.6269,-1.6197,-1.6234,-1.6223,-1.6204,-1.6204,-1.6169,-1.6183,-1.6166,-1.6208,-1.6234,-1.6233,-1.6242,-1.621,-1.6326,-1.6337,-1.6348,-1.6385,-1.64,-1.622,-1.6219,-1.6219,-1.6218,0,-1.6396,-1.641,-1.6442,-1.6424,-1.6425,-1.6454,-1.6406,-1.6413,-1.6377,-1.6349,-1.638,-1.6356,-1.6353,-1.636,-1.6326,-1.6398,-1.6379,-1.6336,-1.6274,-1.6372,-1.6405,-1.6419,-1.6228,-1.6226,-1.6225,-1.6223,0,0,-1.6573,-1.6524,-1.6537,-1.6528,-1.6497,-1.6508,-1.6534,-1.6531,-1.6539,-1.6528,-1.6549,-1.6561,-1.6521,-1.6516,-1.648,-1.6505,-1.6593,-1.6459,-1.6457,-1.6485,-1.6671,-1.6705,-1.6722,-1.6564,-1.6566,-1.6568,-1.6673,0,-1.668,-1.6721,-1.6674,-1.6726,-1.6738,-1.6671,-1.6694,-1.6678,-1.6653,-1.666,-1.6632,-1.6642,-1.6587,-1.6584,-1.6606,-1.6578,-1.663,-1.657,-1.6584,-1.6585,-1.6591,-1.6739,-1.6774,-1.6875,-1.6686,-1.6688,-1.669,0,-1.681,-1.6804,-1.6857,-1.6823,-1.6826,-1.6848,-1.6841,-1.6849,-1.683,-1.6809,-1.6805,-1.676,-1.6785,-1.6724,-1.6757,-1.6717,-1.672,-1.6707,-1.671,-1.671,-1.6644,-1.6744,-1.6906,-1.6921,-1.671,-1.6708,-1.6707,0,-1.6935,-1.694,-1.6972,-1.6966,-1.6927,-1.6944,-1.6929,-1.6906,-1.6907,-1.6902,-1.6902,-1.6899,-1.6898,-1.6898,-1.6854,-1.6814,-1.6893,-1.6829,-1.6878,-1.6879,-1.6898,-1.6898,-1.7063,-1.6899,-1.6899,-1.6898,-1.6898,0,-1.7059,-1.7095,-1.7027,-1.7048,-1.7085,-1.703,-1.7069,-1.7047,-1.7028,-1.7043,-1.6984,-1.7,-1.6941,-1.6951,-1.6917,-1.695,-1.695,-1.6935,-1.6925,-1.694,-1.6942,-1.6942,-1.6934,-1.6902,-1.6902,-1.6901,-1.69,0,-1.7205,-1.7162,-1.7192,-1.7152,-1.7143,-1.7173,-1.7139,-1.7156,-1.7126,-1.7146,-1.7148,-1.7101,-1.711,-1.7066,-1.7067,-1.7044,-1.7094,-1.7072,-1.71,-1.7094,-1.7145,-1.7141,-1.7317,-1.7337,-1.716,-1.7162,-1.7163,0,-1.7288,-1.7313,-1.7276,-1.7281,-1.7268,-1.7278,-1.7278,-1.7225,-1.7228,-1.7208,-1.7228,-1.7231,-1.7231,-1.7247,-1.7214,-1.7215,-1.7193,-1.7255,-1.7193,-1.7207,-1.7195,-1.7194,-1.7197,-1.7268,-1.727,-1.7272,-1.7273,0,-1.7439,-1.7416,-1.7418,-1.7413,-1.7415,-1.7409,-1.7398,-1.7407,-1.7349,-1.7355,-1.7362,-1.7362,-1.7362,-1.7367,-1.736,-1.7345,-1.7301,-1.7293,-1.7304,-1.732,-1.7336,-1.7328,-1.7136,-1.7289,-1.7288,-1.7287,-1.7286,-1.7285,-1.7556,-1.7575,-1.7552,-1.7556,-1.7543,-1.7535,-1.7549,-1.752,-1.7525,-1.752,-1.7489,-1.7502,-1.7482,-1.7468,-1.7458,-1.7468,-1.7439,-1.7455,-1.7459,-1.7465,-1.7474,-1.7333,-1.7466,-1.7466,-1.7465,-1.7465,-1.7465,0,-1.7705,-1.7686,-1.7691,-1.7678,-1.7682,-1.7637,-1.7624,-1.763,-1.7642,-1.7627,-1.7628,-1.7636,-1.764,-1.7607,-1.7606,-1.7621,-1.76,-1.7623,-1.7621,-1.7619,-1.75,-1.749,-1.7639,-1.7639,-1.7639,-1.7639,-1.7639,-1.7639,-1.7783,-1.7813,-1.7787,-1.7811,-1.7792,-1.7803,-1.78,-1.7792,-1.7779,-1.7791,-1.7793,-1.7771,-1.7749,-1.7747,-1.7748,-1.7738,-1.7741,-1.7771,-1.7754,-1.7644,-1.7627,-1.7611,-1.7602,-1.7772,-1.7772,-1.7872,-1.7873,-1.7874]},{"header":{"parameterUnit":"m.s-1","parameterCategory":1,"la1":30.2991,"la2":30.254,"lo1":-89.0895,"lo2":-89.0444,"dy":0.0017,"dx":0.0017,"nx":28,"ny":28,"refTime":"2023-07-30T09:00:00:Z","depth":0,"parameterNumber":3,"parameterNumberName":"V-component_of_WINDS"},"data":[0,0,0,0,0,0,0,0,0,0,0,0,0,0,0,0,0,0,0,0,0,0,0,0,0,0,0,0,0,0,0,0,0,0,0,0,0,0,0,0,0,0,0,0,0,0,0,0,0,0,0,0,0,0,0,0,0,0,-1.6596,-1.6597,0,-1.6727,-1.6729,-1.673,-1.6784,-1.6784,-1.6783,-1.6783,-1.6913,-1.6917,-1.6921,0,0,0,0,0,0,0,0,0,0,0,0,0,-1.6387,-1.6391,-1.6596,-1.6598,-1.6599,-1.6727,-1.6729,-1.6731,-1.6784,-1.6784,-1.6783,-1.6783,-1.6912,-1.6917,-1.6921,0,0,0,0,0,0,0,0,0,0,0,0,0,-1.6494,-1.6392,-1.6596,-1.6641,-1.6647,-1.6727,-1.6729,-1.6731,-1.6784,-1.6784,-1.6783,-1.6783,-1.6911,-1.6916,-1.6922,-1.6965,0,0,-1.6939,-1.6941,0,0,0,0,0,0,0,0,-1.6488,-1.6502,-1.6633,-1.6638,-1.6645,-1.6739,-1.6703,-1.6809,-1.6784,-1.6732,-1.6783,-1.6783,-1.6855,-1.6866,-1.6891,-1.6971,-1.6976,-1.6939,-1.6943,-1.6945,-1.6947,0,0,0,0,0,0,0,-1.648,-1.6496,-1.6648,-1.6635,-1.6642,-1.6654,-1.6669,-1.6724,-1.6794,-1.6736,-1.6741,-1.6756,-1.6858,-1.6885,-1.6894,-1.6978,-1.6939,-1.6944,-1.6948,-1.695,-1.71,-1.7101,0,0,0,0,0,0,-1.6466,-1.649,-1.6644,-1.6652,-1.6564,-1.6658,-1.6675,-1.6709,-1.6794,-1.6806,-1.6756,-1.6758,-1.6876,-1.6888,-1.6899,-1.6956,-1.6945,-1.695,-1.6953,-1.71,-1.71,-1.7101,0,0,0,0,0,0,-1.6461,-1.6479,-1.6638,-1.6572,-1.6593,-1.6662,-1.67,-1.6712,-1.6739,-1.6809,-1.6821,-1.6771,-1.6876,-1.6891,-1.6948,-1.6961,-1.6953,-1.6958,-1.7099,-1.71,-1.7101,-1.7069,0,0,0,0,0,0,-1.6455,-1.6477,-1.6495,-1.6572,-1.6597,-1.6687,-1.6701,-1.6715,-1.6749,-1.6753,-1.6826,-1.6838,-1.6877,-1.694,-1.6954,-1.6969,-1.6962,-1.7098,-1.7099,-1.71,-1.707,-1.7069,-1.7069,0,0,0,0,0,-1.6448,-1.648,-1.6496,-1.6514,-1.6621,-1.6687,-1.6701,-1.6747,-1.675,-1.6768,-1.6813,-1.6835,-1.6957,-1.6945,-1.6962,-1.6978,-1.7097,-1.7099,-1.71,-1.707,-1.7069,-1.7069,0,0,0,0,0,0,-1.6401,-1.6491,-1.651,-1.6568,-1.662,-1.6696,-1.6721,-1.6745,-1.6796,-1.6797,-1.685,-1.6866,-1.6919,-1.6954,-1.6939,-1.7025,-1.7029,-1.7034,-1.7,-1.7,-1.7,-1.6991,-1.6967,0,0,0,0,0,-1.6398,-1.6446,-1.6521,-1.6566,-1.6591,-1.6651,-1.6682,-1.6713,-1.6768,-1.679,-1.6838,-1.689,-1.694,-1.6972,-1.7021,-1.7074,-1.7091,-1.7094,-1.7093,-1.7093,-1.7096,-1.7128,-1.713,-1.7106,-1.7106,-1.7106,0,0,-1.6392,-1.6447,-1.6473,-1.6558,-1.6602,-1.6649,-1.6669,-1.6718,-1.6754,-1.6797,-1.6855,-1.6892,-1.6952,-1.7008,-1.7035,-1.7039,-1.7107,-1.7095,-1.7093,-1.7098,-1.7129,-1.7132,-1.7134,-1.7107,-1.7107,-1.7107,0,0,-1.6405,-1.6451,-1.6494,-1.6538,-1.6604,-1.6644,-1.6654,-1.6727,-1.6754,-1.6813,-1.6847,-1.6888,-1.6973,-1.7016,-1.7048,-1.7077,-1.71,-1.7092,-1.709,-1.712,-1.7122,-1.7124,-1.7135,-1.7138,-1.7095,-1.7095,-1.7095,0,-1.6389,-1.6463,-1.6512,-1.6561,-1.6597,-1.6639,-1.6682,-1.6721,-1.68,-1.6823,-1.6827,-1.6935,-1.6979,-1.7045,-1.7052,-1.7077,-1.709,-1.7084,-1.7118,-1.712,-1.7123,-1.7134,-1.7138,-1.7094,-1.7094,-1.7094,-1.7094,0,-1.644,-1.6491,-1.6517,-1.6594,-1.6633,-1.6677,-1.6733,-1.6766,-1.6793,-1.6832,-1.6891,-1.6945,-1.7007,-1.7025,-1.7051,-1.7095,-1.7096,-1.7107,-1.7113,-1.7123,-1.7134,-1.7139,-1.7092,-1.7092,-1.7093,-1.7093,0,0,-1.6428,-1.6533,-1.6541,-1.6577,-1.6654,-1.6693,-1.674,-1.6802,-1.6829,-1.6881,-1.6922,-1.6993,-1.7005,-1.7041,-1.7073,-1.7099,-1.7119,-1.7108,-1.711,-1.7109,-1.7171,-1.7163,-1.7167,-1.7134,-1.7135,-1.7136,-1.7167,0,-1.6453,-1.654,-1.6586,-1.6654,-1.6701,-1.6742,-1.6782,-1.6833,-1.687,-1.6915,-1.6955,-1.7006,-1.7017,-1.704,-1.7067,-1.7111,-1.7133,-1.7109,-1.7172,-1.7174,-1.7157,-1.7173,-1.7164,-1.7191,-1.7171,-1.7172,-1.7173,0,-1.6493,-1.6547,-1.662,-1.6692,-1.6713,-1.6749,-1.681,-1.6853,-1.691,-1.6936,-1.6977,-1.7008,-1.7057,-1.7058,-1.7127,-1.711,-1.7138,-1.7163,-1.7166,-1.7174,-1.7175,-1.7183,-1.72,-1.7204,-1.718,-1.7179,-1.7179,0,-1.6479,-1.657,-1.6625,-1.6654,-1.6739,-1.6763,-1.6799,-1.6857,-1.6891,-1.6943,-1.6966,-1.7023,-1.7054,-1.7096,-1.7141,-1.7138,-1.7206,-1.7211,-1.7228,-1.7227,-1.7242,-1.7241,-1.7265,-1.7257,-1.7257,-1.7257,-1.7257,0,-1.6502,-1.6545,-1.662,-1.6655,-1.6704,-1.6755,-1.6802,-1.6841,-1.6892,-1.6933,-1.697,-1.7008,-1.7065,-1.711,-1.7145,-1.7197,-1.721,-1.7232,-1.7241,-1.7229,-1.7227,-1.7249,-1.7249,-1.7258,-1.7258,-1.7258,-1.7258,0,-1.6496,-1.6547,-1.6611,-1.6686,-1.6706,-1.6739,-1.6803,-1.6837,-1.6876,-1.6928,-1.6943,-1.7005,-1.7059,-1.7108,-1.718,-1.7203,-1.7257,-1.7267,-1.7238,-1.7243,-1.7258,-1.7257,-1.7299,-1.7307,-1.7293,-1.7293,-1.7293,0,-1.6508,-1.6542,-1.6622,-1.6653,-1.6689,-1.6739,-1.6775,-1.6826,-1.6862,-1.693,-1.6956,-1.7013,-1.7063,-1.7147,-1.7197,-1.7252,-1.7265,-1.7276,-1.7274,-1.7261,-1.7267,-1.7265,-1.7269,-1.7276,-1.7276,-1.7276,-1.7276,0,-1.6524,-1.6548,-1.66,-1.666,-1.6702,-1.6752,-1.6802,-1.6825,-1.6886,-1.6923,-1.6981,-1.7019,-1.7093,-1.7149,-1.721,-1.7246,-1.7271,-1.7276,-1.7283,-1.7273,-1.7255,-1.7266,-1.7238,-1.7275,-1.7275,-1.7275,-1.7275,-1.7275,-1.6528,-1.6561,-1.6623,-1.6678,-1.6722,-1.6768,-1.6805,-1.6849,-1.6898,-1.6964,-1.699,-1.7049,-1.7105,-1.719,-1.7225,-1.727,-1.7275,-1.7285,-1.7288,-1.729,-1.7289,-1.7246,-1.7281,-1.7281,-1.7281,-1.7281,-1.7281,0,-1.6548,-1.6589,-1.664,-1.6711,-1.6754,-1.6775,-1.6832,-1.6867,-1.6919,-1.697,-1.7018,-1.7083,-1.7139,-1.7193,-1.7251,-1.7276,-1.7289,-1.729,-1.7289,-1.7297,-1.728,-1.7269,-1.7279,-1.7279,-1.7279,-1.7279,-1.7279,-1.7279,-1.6563,-1.662,-1.6651,-1.673,-1.6771,-1.683,-1.6861,-1.6904,-1.6945,-1.7018,-1.7064,-1.71,-1.7152,-1.7214,-1.7265,-1.728,-1.73,-1.7297,-1.7315,-1.7298,-1.7298,-1.7298,-1.7288,-1.7301,-1.7301,-1.7328,-1.7328,-1.7328]}]]